Temperature
21 21 20 20 18 17 19 20 21 22 22 23 23 23 22 22 22 22 22 22 22 22 21 21 20 20 20 20 20 20 20 19 19 19 19 19 19 19 19 18 18 18 18 18 18 18 18 18 18
21 21 20 20 17 18 19 20 21 22 23 23 23 23 22 22 22 23 23 22 22 22 21 21 20 20 20 20 20 20 19 19 19 19 19 19 19 19 18 18 18 18 18 18 18 18 18 17 17
21 21 20 17 17 18 21 22 22 23 24 24 23 23 22 22 22 23 23 22 22 21 21 21 20 20 20 20 20 19 19 19 19 19 19 18 18 18 18 18 18 18 18 18 18 17 17 17 17
21 21 20 17 19 19 20 22 22 22 23 24 23 22 22 22 23 23 23 22 22 21 21 21 20 20 20 20 19 19 19 19 19 19 18 18 18 18 18 18 18 17 17 17 17 17 17 17 17
21 20 18 17 19 19 20 21 22 22 23 23 23 22 22 22 23 23 22 22 22 21 21 21 20 20 20 19 19 19 19 19 19 19 18 18 18 18 18 18 17 17 17 17 17 17 17 17 17
21 18 17 18 19 20 21 22 23 22 22 23 22 21 21 22 22 22 22 22 21 21 21 20 20 20 19 19 19 19 19 19 18 18 18 18 18 18 17 17 17 17 17 17 16 17 17 17 16
20 16 18 19 19 20 22 23 23 22 22 23 23 21 21 22 22 22 22 21 21 20 20 20 20 20 19 19 19 19 18 18 18 18 18 18 17 17 17 17 17 16 16 16 16 16 16 16 16
21 17 19 18 20 21 22 23 23 23 22 23 23 21 21 22 22 22 21 21 20 20 20 20 20 19 19 19 19 18 18 18 18 18 18 17 17 17 17 16 16 16 16 16 16 16 16 16 16
21 17 18 19 20 21 22 22 23 23 23 23 23 23 23 22 22 21 21 20 20 20 20 19 19 19 19 19 18 18 18 18 18 17 17 17 17 17 16 16 16 16 16 16 16 16 16 16 16
20 17 19 20 21 21 22 22 22 22 21 22 22 22 22 22 21 21 21 20 20 20 19 19 19 19 19 18 18 18 18 18 17 17 17 17 17 16 16 16 16 16 16 16 16 16 16 15 15
19 19 20 21 23 22 21 22 22 21 20 21 22 22 22 21 21 21 21 20 20 20 19 19 19 19 18 18 18 18 18 17 17 17 17 16 16 16 16 16 16 16 16 16 15 15 15 15 15
19 20 21 22 23 23 22 22 22 21 22 23 23 23 22 21 21 21 21 20 20 20 19 19 19 18 18 18 18 18 17 17 17 17 17 16 16 16 16 16 16 16 16 15 15 15 15 15 15
20 20 22 23 23 22 22 21 21 21 23 23 23 22 22 21 21 21 20 20 20 19 19 19 18 18 18 18 18 17 17 17 17 17 16 16 16 16 16 16 16 15 15 15 15 15 15 15 15
21 21 22 22 22 22 21 21 21 21 22 22 22 21 21 21 21 20 20 20 20 19 19 19 18 18 18 18 17 17 17 17 17 16 16 16 16 16 16 15 15 15 15 15 15 15 15 15 14
21 20 21 21 21 21 21 20 20 22 21 21 21 21 20 20 20 20 20 20 20 19 19 19 18 18 18 18 17 17 17 17 17 16 16 16 16 15 15 15 15 15 15 15 15 14 14 14 14
20 20 20 21 21 21 21 20 20 21 20 20 20 20 20 20 20 20 20 20 19 19 19 18 18 18 18 18 17 17 17 17 16 16 16 16 15 15 15 15 15 15 15 14 14 14 14 14 14
19 19 20 21 20 20 20 19 19 20 19 19 19 19 19 19 19 20 20 19 19 19 19 18 18 18 18 17 17 17 16 16 16 16 16 16 15 15 15 15 15 15 14 14 14 14 14 14 14
20 20 20 20 20 20 19 18 18 19 18 18 18 18 18 18 19 19 19 19 19 19 18 18 18 17 17 17 16 16 16 16 16 16 16 15 15 15 15 15 14 14 14 14 14 14 14 14 14
20 20 19 20 20 19 18 18 18 18 17 17 17 17 18 18 19 19 19 19 19 18 18 18 17 17 17 17 16 16 16 16 15 15 15 15 15 15 14 14 14 14 14 14 14 13 13 13 13
20 20 19 19 20 20 18 18 18 17 17 17 17 17 17 18 18 18 18 18 18 18 18 17 17 17 17 17 16 16 16 15 15 15 15 15 14 14 14 14 14 14 14 14 13 13 13 13 13
20 20 20 20 19 19 19 18 18 17 17 17 17 17 17 17 18 18 18 18 18 18 18 17 17 17 16 16 16 15 15 15 15 15 15 14 14 14 14 14 14 14 13 13 13 13 13 13 13
20 20 20 19 18 17 18 17 17 16 16 16 16 17 17 17 17 17 18 18 18 18 17 17 17 16 16 16 16 15 15 15 15 15 14 14 14 14 14 14 13 13 13 13 13 13 13 13 13
21 20 19 18 18 17 17 16 16 16 16 16 16 16 16 17 17 17 17 18 18 17 17 17 16 16 16 16 15 15 15 15 15 14 14 14 14 14 13 13 13 13 13 13 13 13 13 12 12
19 18 18 16 15 17 17 16 16 15 15 15 15 16 16 16 17 17 17 17 17 17 17 16 16 16 15 15 15 15 15 14 14 14 14 14 13 13 13 13 13 13 13 13 12 12 12 12 12
17 17 16 16 15 16 16 16 15 16 16 15 15 16 16 16 17 16 16 16 16 16 16 16 16 15 15 15 15 14 14 14 14 14 14 13 13 13 13 13 13 13 12 12 12 12 12 12 12
17 17 16 16 15 15 16 15 15 16 16 16 16 16 16 16 16 16 16 16 16 16 16 16 15 15 15 14 14 14 14 14 14 13 13 13 13 13 13 12 12 12 12 12 12 12 12 12 12
17 16 15 14 15 15 15 15 15 16 15 15 15 15 15 15 16 16 16 15 15 15 15 15 15 15 14 14 14 14 14 13 13 13 13 13 13 12 12 12 12 12 12 12 12 12 12 12 12
17 15 13 14 14 15 15 15 15 15 15 14 14 15 15 15 15 15 15 15 15 15 15 15 15 14 14 14 14 13 13 13 13 13 13 13 12 12 12 12 12 12 12 12 12 12 12 12 12
16 15 13 12 13 14 14 14 15 14 14 14 14 15 15 15 15 15 15 15 15 15 15 14 14 14 14 14 14 13 13 13 13 13 12 12 12 12 12 12 12 12 12 12 12 12 12 11 11
16 16 14 14 14 13 13 13 15 14 14 13 14 14 14 15 15 15 14 14 14 14 14 14 14 14 14 14 14 13 13 13 13 13 12 12 12 12 12 12 12 12 12 11 11 11 11 11 11
Wind_Speed
3 4 3 2 4 4 3 5 3 2 2 1 2 3 4 3 3 3 0 8 10 11 12 15 16 16 16 16 16 16 16 16 16 16 16 16 16 15 14 13 12 11 10 9 9 8 7 7 6
3 3 3 4 4 1 5 5 3 3 3 1 1 2 2 1 1 2 3 6 11 12 12 14 16 16 15 15 15 15 15 15 15 15 15 14 14 14 13 12 11 10 9 9 8 7 6 6 5
3 2 4 4 3 4 5 4 4 3 2 1 1 1 1 2 1 3 4 10 10 10 11 14 17 16 15 15 15 14 14 14 14 14 14 13 13 13 12 11 10 9 9 8 7 6 6 5 5
3 4 5 4 3 5 5 5 4 2 3 1 2 1 1 0 2 4 9 12 12 10 11 13 16 16 16 15 14 14 14 14 14 13 13 13 12 11 11 10 9 8 7 7 6 6 5 4 4
4 4 4 2 5 5 5 6 5 3 2 0 2 2 1 2 4 8 10 12 12 9 9 12 16 16 15 15 14 14 13 13 13 13 12 11 11 10 9 8 8 7 6 6 5 5 4 4 3
4 5 4 2 6 5 4 4 2 2 3 2 2 2 2 1 5 8 9 9 9 9 8 10 15 16 15 15 14 13 12 12 12 11 11 11 10 9 8 7 7 6 6 5 5 5 4 3 3
4 4 3 3 4 5 3 2 1 2 3 3 3 3 1 2 4 7 7 8 8 7 7 7 10 12 14 13 12 12 11 11 11 10 10 10 9 8 7 6 5 5 5 4 4 4 3 3 2
5 4 1 2 3 5 3 2 1 2 4 2 3 5 5 5 8 9 8 7 7 6 6 6 6 7 9 10 12 11 10 10 10 10 9 9 8 7 6 5 5 4 4 4 4 4 3 3 3
4 4 2 5 5 5 3 2 3 2 1 1 2 3 4 11 12 10 8 6 6 6 5 5 5 6 7 8 10 11 10 10 9 8 8 8 6 5 5 5 5 5 5 4 4 4 4 3 3
4 2 7 6 6 5 5 4 4 1 2 2 1 1 8 13 13 12 10 10 10 9 7 5 6 5 6 7 7 7 7 7 7 6 6 5 5 4 4 4 5 5 5 4 4 4 4 3 2
5 6 6 7 8 6 4 4 2 3 5 7 6 6 11 12 11 11 11 9 10 8 8 6 6 5 5 4 5 4 4 5 5 5 5 5 4 3 3 2 3 3 3 3 2 2 2 2 2
4 7 7 7 5 3 4 3 2 5 8 5 6 9 11 12 12 11 10 8 7 7 7 6 6 5 5 4 4 4 3 3 3 4 6 5 3 2 2 1 2 2 2 1 2 1 2 2 2
5 6 5 6 6 5 3 3 3 5 6 1 5 8 10 11 9 7 6 5 5 6 7 6 6 6 5 4 4 4 3 4 4 5 6 6 3 3 2 1 1 1 1 2 1 1 2 2 2
4 4 6 6 4 2 2 2 0 5 1 4 7 7 8 8 7 6 5 5 5 6 6 6 6 6 6 5 4 3 4 4 4 4 5 6 5 3 3 2 2 1 2 2 1 2 2 2 2
2 4 8 4 2 1 2 4 3 3 3 4 5 5 6 5 5 6 6 6 6 5 5 6 6 6 6 6 5 4 4 4 4 4 5 6 6 4 3 2 2 2 2 2 1 1 1 1 1
4 4 5 6 4 2 3 4 6 2 4 2 3 3 4 3 4 4 4 4 4 5 5 5 6 6 6 5 4 3 3 4 3 4 4 5 5 5 4 3 2 2 2 2 2 2 1 1 2
5 3 4 7 3 2 2 4 6 4 3 1 1 2 2 2 1 2 3 4 4 5 6 6 5 6 6 5 3 3 3 3 3 3 3 3 4 5 4 3 2 1 1 1 2 2 2 2 2
4 4 4 5 4 3 2 3 6 5 4 2 2 1 1 1 3 2 1 2 3 4 5 5 4 4 5 4 3 2 2 1 1 2 2 3 3 4 4 3 2 2 1 1 2 2 1 2 2
3 3 7 7 4 1 1 3 5 6 6 5 4 3 2 3 2 0 1 2 2 3 4 5 5 5 5 4 4 3 3 2 1 2 2 3 3 3 3 3 3 2 2 3 3 2 2 2 0
2 3 5 5 3 1 1 3 3 5 4 3 3 4 4 4 3 1 1 2 2 3 4 4 5 5 5 4 4 3 2 2 2 1 1 2 3 3 3 3 3 2 2 2 2 2 2 2 1
2 3 4 4 3 3 2 4 5 5 4 5 5 3 4 3 3 2 2 2 2 3 4 6 6 5 4 4 4 3 2 1 0 1 1 2 2 2 2 3 3 3 3 3 3 4 4 3 2
5 4 3 2 1 2 2 2 5 5 7 9 8 6 5 5 3 2 1 2 3 3 4 5 6 5 4 5 5 5 4 3 3 2 2 2 1 1 2 2 2 3 3 3 3 3 3 3 3
4 4 2 1 2 2 4 2 5 5 7 8 8 8 7 5 4 3 2 2 1 2 3 4 4 3 3 4 5 5 4 3 2 1 1 1 1 1 1 2 3 3 2 3 2 2 3 3 4
2 4 4 5 4 2 2 1 4 3 5 8 8 8 8 7 6 5 4 2 1 2 2 2 3 3 3 4 4 5 5 4 3 2 2 1 1 1 1 2 2 2 2 3 3 3 3 4 4
7 6 5 7 5 4 2 1 3 4 5 5 7 8 7 6 5 5 4 3 2 0 2 2 3 3 2 3 3 4 5 5 5 4 3 2 2 2 2 2 2 2 2 2 2 3 4 4 4
3 5 4 2 4 5 3 1 3 4 6 7 6 5 6 6 6 5 4 3 2 1 2 2 3 3 3 3 2 2 3 3 3 3 3 3 3 3 3 2 2 2 2 3 3 3 4 3 4
3 2 2 4 1 2 4 4 4 6 9 9 9 7 7 7 6 5 4 3 2 2 2 2 3 2 2 2 2 2 2 3 3 3 3 3 3 3 3 2 2 2 3 3 3 3 4 3 4
4 3 4 3 1 3 5 3 4 8 9 10 10 8 8 8 7 6 4 3 3 1 1 2 2 2 2 2 2 2 2 3 3 3 3 3 3 3 3 3 3 3 3 3 3 3 3 3 3
4 4 4 3 3 2 3 5 2 4 6 8 8 7 7 8 7 6 5 4 2 1 0 1 2 2 2 2 2 2 1 2 2 2 3 3 3 3 3 3 3 3 3 3 3 3 3 3 3
1 1 3 1 2 2 2 6 5 6 7 7 7 7 7 6 5 5 4 4 2 1 0 1 1 1 2 2 2 2 1 2 2 2 3 2 3 3 3 3 3 3 2 2 3 3 3 3 3
Wind_Direction
170 128 107 76 58 47 284 267 248 276 271 256 113 130 146 164 185 229 33 140 136 142 149 157 159 158 156 151 146 143 140 138 138 140 141 143 144 144 145 146 148 149 148 147 147 148 148 148 147
138 124 75 64 86 45 279 262 247 242 221 184 71 99 113 219 196 129 124 144 138 142 147 154 158 159 156 153 149 146 144 142 142 142 143 144 145 146 148 149 150 151 151 152 152 151 150 149 148
139 95 87 76 117 191 247 251 231 268 261 227 153 92 156 215 170 170 162 140 136 143 148 156 159 159 158 156 153 150 148 146 145 145 146 147 148 148 149 151 153 155 157 158 160 157 156 156 158
107 58 59 76 238 234 235 254 247 267 305 308 147 125 167 13 162 156 139 141 142 147 151 158 158 159 159 158 156 154 152 151 150 150 150 151 151 149 148 151 156 159 162 163 165 162 162 169 167
65 80 60 0 268 262 253 264 254 255 271 258 143 171 268 1 103 124 139 145 149 149 152 158 158 160 160 160 159 158 156 155 155 155 154 152 152 151 152 156 160 165 168 170 173 170 176 182 179
59 69 79 285 283 279 270 251 230 253 271 253 158 164 274 96 120 135 139 140 144 148 148 155 162 163 164 164 163 162 161 161 160 158 157 155 156 157 159 164 168 172 178 185 187 182 183 182 195
105 101 166 240 283 299 282 269 211 262 280 245 172 156 245 157 140 132 125 124 129 138 144 149 163 165 165 164 165 166 165 164 163 163 163 164 165 166 168 172 177 181 189 193 192 190 186 200 217
127 106 147 251 254 271 278 326 309 259 256 229 155 171 213 188 137 120 113 115 126 136 148 151 149 153 157 162 168 171 170 167 167 171 174 174 176 176 178 176 183 192 201 204 202 201 206 219 232
97 76 243 233 221 254 268 300 301 279 204 230 207 201 183 139 132 127 126 130 145 158 161 159 154 150 155 161 171 172 173 173 172 176 179 177 174 176 184 188 194 203 209 217 216 212 218 227 238
102 158 236 227 213 241 271 259 263 291 280 269 282 92 127 141 147 153 161 168 172 177 176 169 166 163 161 168 165 166 170 171 173 173 171 168 162 173 189 203 214 213 212 223 227 228 237 249 253
169 208 247 258 242 236 253 260 238 183 250 235 218 178 150 154 161 169 176 180 181 176 176 176 174 171 168 163 153 158 162 162 169 171 166 161 160 173 186 196 234 240 233 232 240 248 256 265 262
207 246 241 261 258 238 228 220 234 210 234 243 207 166 157 164 174 180 183 184 175 166 174 177 176 173 170 161 157 157 159 160 167 173 171 167 166 180 190 189 222 238 237 244 252 258 264 267 265
225 264 259 251 268 257 243 238 225 249 259 168 135 142 161 169 176 179 176 170 166 170 174 181 180 177 173 165 169 167 173 176 178 176 182 177 178 199 202 204 199 222 234 236 240 240 257 265 276
252 276 294 296 291 288 182 289 304 271 312 115 137 154 160 168 167 166 171 174 178 183 181 180 181 179 169 172 176 173 173 170 175 180 187 186 186 189 200 211 211 219 226 228 225 241 245 252 260
306 325 327 327 353 319 69 352 288 278 98 120 141 156 161 169 160 179 189 185 184 184 183 183 188 181 175 177 178 170 166 163 176 182 190 193 192 189 189 204 221 231 224 216 225 255 255 260 267
10 14 338 314 351 2 75 293 297 13 103 132 150 161 164 179 176 186 191 181 176 176 177 188 191 180 176 173 169 158 156 163 174 171 176 191 189 185 179 196 219 228 210 205 209 215 227 260 271
22 350 304 310 341 30 79 274 312 4 81 97 185 179 166 173 189 195 185 176 179 186 181 182 181 176 172 162 149 146 139 162 171 163 168 179 188 191 180 194 210 193 198 215 221 205 205 238 273
290 304 300 297 307 19 356 302 338 8 54 37 7 27 130 229 244 238 187 164 170 181 176 175 170 166 157 146 132 124 123 172 174 179 182 184 189 193 182 193 202 183 199 232 221 216 211 221 253
236 271 288 280 286 23 10 356 353 16 36 22 5 353 331 283 276 265 145 160 160 169 171 173 167 167 153 155 165 169 195 208 216 220 210 201 200 195 191 206 204 191 202 223 224 211 218 237 225
222 289 295 305 351 74 60 14 11 32 30 29 6 344 327 319 340 338 215 188 182 179 178 178 175 172 170 174 169 165 174 194 215 239 239 221 215 208 201 206 200 197 206 225 223 210 205 224 183
292 247 271 281 343 40 44 354 356 358 13 18 13 6 348 311 283 273 231 219 186 177 173 181 185 181 174 161 137 123 102 74 94 255 259 249 224 213 202 202 201 204 199 214 224 213 204 220 217
299 283 270 290 25 327 42 302 317 335 352 0 353 349 336 327 303 292 268 233 208 190 180 180 182 178 174 164 159 162 180 205 219 215 220 256 239 216 207 204 203 209 207 218 229 214 209 203 220
272 333 4 19 122 32 18 102 301 346 345 334 332 337 332 335 341 328 311 252 204 162 168 173 166 168 175 173 172 172 193 209 208 191 196 253 286 238 223 214 205 211 213 224 236 224 209 207 211
338 29 38 43 63 20 323 120 302 320 310 320 328 335 338 346 2 2 357 357 86 121 135 142 148 166 180 179 181 182 190 190 186 195 209 228 248 263 253 231 209 210 216 228 237 235 224 218 220
35 53 20 2 7 276 313 92 259 298 311 311 312 321 336 347 356 358 357 351 341 157 160 161 167 184 183 183 190 196 198 194 199 204 207 207 222 239 257 245 227 222 228 235 240 238 243 230 225
13 102 133 241 259 291 335 258 259 321 331 332 331 330 347 350 347 342 341 324 314 266 188 173 181 200 186 186 199 205 201 201 205 205 205 208 219 232 241 230 228 240 243 243 239 245 248 234 232
42 46 153 147 275 296 296 303 313 352 352 349 347 347 342 340 337 337 335 323 304 262 219 197 194 209 196 196 205 214 205 199 203 200 203 215 226 232 235 238 243 250 246 240 234 246 252 240 237
81 120 66 78 49 296 302 307 308 327 330 335 337 332 329 334 338 338 333 325 306 277 232 193 189 208 206 192 204 228 220 206 200 199 212 226 238 239 243 249 254 259 257 249 235 242 248 242 249
16 39 69 90 147 180 294 289 294 306 314 321 320 321 327 332 338 338 333 322 314 328 89 181 188 194 198 191 193 207 222 205 194 199 220 236 253 246 241 244 253 259 256 249 238 250 248 243 258
92 85 115 91 293 189 226 277 306 320 317 322 329 333 331 330 337 343 336 327 323 333 326 231 189 193 217 205 180 185 223 209 205 223 239 243 258 261 254 254 257 255 254 251 248 259 257 246 259
Height
1502 1502 1503 1505 1508 1517 1517 1507 1499 1495 1493 1491 1491 1491 1492 1494 1497 1500 1493 1492 1493 1495 1497 1500 1503 1506 1508 1510 1512 1513 1515 1517 1518 1520 1521 1523 1524 1525 1526 1528 1529 1530 1531 1533 1534 1534 1535 1535 1536
1502 1502 1505 1505 1514 1525 1517 1503 1498 1493 1491 1490 1490 1491 1491 1491 1491 1491 1491 1492 1494 1496 1498 1500 1503 1506 1508 1510 1512 1514 1515 1517 1518 1520 1521 1523 1524 1525 1526 1528 1529 1530 1531 1532 1533 1534 1534 1535 1535
1501 1502 1505 1508 1517 1521 1510 1498 1494 1491 1491 1490 1490 1490 1491 1491 1491 1491 1491 1492 1494 1496 1498 1500 1503 1506 1508 1510 1512 1514 1515 1517 1518 1520 1521 1522 1524 1525 1526 1528 1529 1530 1530 1531 1532 1533 1533 1534 1535
1502 1504 1505 1513 1514 1509 1502 1494 1492 1491 1490 1489 1489 1491 1490 1491 1490 1491 1491 1492 1494 1496 1499 1501 1503 1506 1508 1510 1512 1514 1515 1517 1518 1520 1521 1522 1524 1525 1526 1527 1528 1529 1530 1530 1531 1532 1532 1533 1533
1502 1503 1510 1517 1512 1503 1496 1492 1491 1491 1490 1489 1489 1490 1490 1490 1490 1491 1491 1493 1494 1496 1499 1501 1503 1506 1508 1510 1512 1513 1515 1517 1518 1519 1521 1522 1523 1524 1525 1526 1527 1528 1529 1530 1530 1530 1531 1532 1532
1502 1504 1518 1520 1509 1499 1493 1491 1490 1490 1489 1489 1489 1489 1489 1489 1490 1491 1492 1493 1495 1497 1499 1501 1503 1505 1508 1510 1511 1513 1515 1517 1518 1519 1521 1522 1523 1524 1525 1526 1526 1527 1528 1529 1529 1529 1530 1530 1531
1503 1509 1515 1513 1508 1500 1493 1490 1490 1490 1488 1488 1488 1489 1488 1489 1490 1491 1493 1494 1495 1498 1499 1501 1503 1505 1507 1509 1511 1513 1515 1516 1518 1519 1520 1521 1522 1523 1524 1525 1526 1526 1527 1527 1528 1528 1529 1529 1530
1502 1507 1511 1511 1507 1500 1492 1490 1489 1490 1488 1488 1488 1487 1487 1487 1489 1491 1492 1494 1496 1497 1499 1501 1503 1505 1507 1509 1511 1513 1515 1516 1517 1518 1519 1521 1521 1522 1523 1524 1524 1525 1526 1526 1526 1527 1527 1527 1528
1501 1511 1514 1507 1503 1496 1490 1490 1488 1488 1487 1486 1485 1485 1485 1486 1488 1490 1491 1493 1495 1497 1499 1501 1503 1504 1506 1508 1510 1511 1513 1515 1516 1517 1518 1519 1520 1521 1522 1522 1523 1524 1524 1525 1525 1525 1526 1526 1526
1501 1512 1505 1496 1493 1490 1488 1488 1487 1487 1486 1485 1484 1484 1484 1486 1487 1489 1490 1491 1493 1496 1498 1500 1502 1504 1506 1507 1509 1511 1512 1513 1515 1516 1517 1518 1519 1520 1521 1521 1521 1522 1523 1523 1523 1524 1524 1524 1524
1499 1502 1495 1490 1488 1487 1487 1486 1485 1486 1486 1483 1482 1482 1483 1485 1486 1488 1489 1491 1493 1495 1497 1500 1501 1503 1505 1506 1508 1509 1511 1512 1513 1514 1515 1516 1517 1518 1519 1520 1520 1520 1521 1521 1521 1522 1522 1522 1522
1498 1494 1491 1488 1485 1485 1484 1483 1484 1483 1481 1480 1481 1481 1481 1483 1484 1486 1489 1491 1493 1494 1497 1499 1501 1503 1504 1505 1506 1508 1509 1511 1512 1513 1514 1515 1516 1517 1518 1518 1518 1519 1519 1519 1520 1520 1520 1520 1520
1496 1491 1488 1485 1483 1482 1482 1482 1483 1481 1479 1479 1479 1480 1480 1482 1484 1486 1489 1492 1493 1494 1496 1498 1500 1501 1502 1504 1505 1506 1507 1509 1510 1511 1512 1513 1514 1515 1516 1516 1517 1517 1518 1518 1518 1518 1518 1518 1518
1492 1490 1486 1484 1482 1481 1481 1481 1481 1479 1479 1478 1478 1479 1480 1482 1484 1486 1489 1490 1492 1494 1496 1498 1499 1500 1501 1502 1503 1504 1506 1507 1508 1509 1510 1511 1512 1513 1514 1515 1515 1515 1515 1516 1516 1516 1516 1516 1516
1491 1491 1487 1483 1482 1482 1482 1484 1481 1479 1479 1479 1479 1480 1481 1482 1484 1485 1487 1489 1491 1493 1495 1496 1498 1499 1500 1501 1502 1502 1503 1504 1506 1507 1508 1509 1510 1511 1512 1512 1513 1513 1513 1514 1514 1514 1514 1514 1514
1492 1496 1498 1487 1483 1482 1486 1492 1481 1480 1479 1480 1480 1481 1481 1482 1484 1485 1487 1488 1490 1492 1493 1495 1496 1497 1498 1499 1500 1501 1502 1503 1504 1505 1506 1507 1508 1509 1510 1510 1510 1511 1511 1511 1511 1511 1511 1511 1511
1502 1506 1502 1493 1484 1484 1488 1492 1483 1481 1480 1481 1481 1481 1482 1483 1483 1485 1486 1488 1489 1491 1492 1493 1494 1495 1496 1497 1498 1499 1500 1502 1503 1504 1504 1505 1506 1506 1507 1507 1508 1508 1508 1508 1508 1508 1508 1508 1508
1507 1505 1502 1498 1488 1488 1490 1491 1486 1484 1482 1482 1482 1483 1483 1483 1483 1484 1486 1487 1488 1489 1490 1491 1492 1493 1494 1495 1497 1498 1499 1500 1501 1501 1502 1503 1503 1504 1504 1505 1505 1505 1505 1506 1506 1506 1505 1505 1505
1499 1501 1503 1496 1488 1490 1492 1492 1489 1486 1484 1484 1484 1484 1483 1483 1483 1484 1485 1485 1487 1488 1488 1489 1490 1492 1492 1493 1495 1496 1497 1498 1499 1499 1500 1501 1501 1502 1501 1502 1502 1503 1503 1503 1503 1503 1503 1503 1503
1498 1501 1501 1494 1487 1489 1493 1493 1490 1488 1488 1487 1485 1484 1483 1482 1482 1482 1483 1484 1484 1486 1486 1487 1488 1489 1490 1491 1493 1493 1495 1496 1497 1498 1498 1499 1499 1499 1499 1499 1499 1500 1500 1500 1500 1500 1500 1499 1500
1496 1499 1498 1496 1491 1490 1493 1496 1493 1489 1488 1487 1486 1484 1483 1482 1481 1480 1481 1482 1483 1483 1483 1484 1486 1488 1489 1490 1491 1492 1493 1493 1495 1495 1496 1497 1497 1497 1497 1497 1497 1497 1497 1498 1498 1498 1497 1497 1497
1499 1490 1491 1493 1499 1505 1500 1511 1499 1494 1490 1487 1486 1485 1483 1482 1480 1479 1479 1480 1481 1481 1482 1483 1484 1486 1487 1488 1489 1490 1491 1491 1492 1493 1494 1494 1495 1495 1494 1494 1495 1495 1495 1495 1495 1495 1494 1494 1494
1492 1489 1491 1494 1499 1506 1505 1511 1507 1497 1495 1491 1488 1485 1483 1481 1479 1479 1479 1480 1480 1480 1481 1481 1482 1484 1485 1486 1487 1488 1489 1489 1490 1491 1491 1492 1492 1492 1493 1493 1493 1493 1493 1492 1492 1492 1492 1491 1491
1491 1492 1495 1501 1507 1515 1509 1513 1513 1503 1499 1493 1489 1486 1483 1481 1479 1479 1479 1479 1479 1479 1480 1480 1481 1482 1483 1484 1485 1486 1487 1487 1488 1488 1489 1489 1489 1490 1490 1490 1489 1489 1489 1489 1489 1489 1489 1489 1488
1496 1506 1519 1520 1525 1520 1509 1512 1511 1498 1495 1493 1490 1486 1484 1482 1480 1479 1478 1478 1478 1478 1478 1479 1480 1481 1482 1483 1483 1484 1484 1485 1486 1486 1486 1486 1487 1487 1487 1488 1487 1486 1486 1487 1487 1487 1487 1486 1485
1503 1508 1525 1531 1531 1523 1512 1513 1505 1496 1493 1491 1489 1487 1484 1482 1481 1479 1478 1477 1477 1477 1477 1478 1478 1479 1480 1481 1481 1482 1483 1483 1483 1484 1484 1484 1485 1486 1486 1485 1485 1484 1484 1485 1485 1484 1484 1483 1482
1505 1511 1512 1523 1524 1528 1519 1510 1501 1494 1493 1490 1488 1485 1484 1482 1480 1478 1477 1476 1476 1476 1476 1477 1477 1477 1478 1479 1480 1480 1481 1481 1481 1482 1482 1482 1483 1483 1483 1483 1482 1482 1482 1482 1482 1482 1481 1480 1480
1504 1510 1518 1525 1531 1532 1522 1516 1513 1500 1496 1491 1488 1485 1483 1481 1480 1478 1477 1475 1475 1475 1475 1475 1475 1476 1476 1477 1478 1478 1479 1479 1479 1480 1480 1480 1481 1481 1481 1480 1480 1480 1479 1479 1479 1479 1478 1478 1477
1509 1513 1519 1527 1528 1532 1532 1523 1504 1501 1496 1493 1489 1486 1484 1482 1479 1477 1476 1475 1474 1474 1473 1473 1474 1474 1475 1475 1475 1476 1477 1477 1477 1478 1478 1478 1478 1478 1478 1478 1478 1477 1477 1477 1476 1476 1475 1475 1474
1508 1512 1518 1526 1527 1529 1532 1524 1499 1498 1495 1492 1489 1486 1484 1482 1480 1478 1476 1475 1473 1472 1472 1472 1473 1473 1473 1473 1474 1474 1475 1475 1475 1475 1476 1476 1476 1476 1476 1476 1475 1475 1474 1474 1474 1473 1472 1472 1471